Location: Eastchurch
(51.4000°N, 0.8667°E)
Time: 23:17:28
(UTC+00:00)

Spot 4 Rocket - Pass Details

Date: 19 January 2026
Orbit: 768 x 774 km, 98.8° (Epoch: 9 February)

Event Time Altitude Azimuth Distance (km) Brightness Sun altitude
Rises 18:37:56 0° 173° (S) 3,240 7.3 -20.4°
Reaches altitude 10° 18:40:16 10° 176° (S) 2,317 6.5 -20.7°
Maximum altitude 18:45:19 62° 258° (WSW) 872 4.5 -21.5°
Drops below altitude 10° 18:50:25 10° 339° (NNW) 2,331 6.7 -22.3°
Sets 18:52:46 0° 343° (NNW) 3,262 7.4 -22.7°
